Fort Eustis, VA

4:01 AM EST on November 21, 2019 (GMT -0500)
Felker Army Air Field

Weather History for KFAF - September, 2019

Change the Weather History Date:

Sunday, September 1, 2019

  Actual Average Record
Temperature  
Mean Temperature 77 °F -  
Max Temperature 85 °F 82 °F 94 °F (2010)
Min Temperature 69 °F 68 °F 57 °F (2017)
Cooling Degree Days 12    
Growing Degree Days 27 (Base 50)    
Moisture  
Dew Point 68 °F    
Average Humidity 72    
Maximum Humidity 90    
Minimum Humidity 52    
Precipitation  
Precipitation 0.00 in - - ()
Sea Level Pressure  
Sea Level Pressure 30.19 in    
Wind  
Wind Speed 4 mph ()    
Max Wind Speed 12 mph    
Max Gust Speed -    
Visibility 10.0 miles    
Events      
Averages and records for this station are not official NWS values.
T = Trace of Precipitation, MM = Missing Value Source: Averaged Metar Reports

Daily Weather History Graph

Daily Weather History Graph

Search for Another Location

Airport or City:

Astronomy

Sep. 01, 2019 Rise Set
Actual Time 6:36 AM EDT 7:35 PM EDT
Civil Twilight 6:10 AM EDT 8:01 PM EDT
Nautical Twilight 5:38 AM EDT 8:33 PM EDT
Astronomical Twilight 5:05 AM EDT 9:06 PM EDT
Moon 9:01 AM EDT (9/1) 9:25 PM EDT (9/1)
Length of Visible Light 13h 51m
Length of Day
12h 58m
Waxing Crescent, 8% of the Moon is Illuminated
Sep 1
Waxing Crescent
Sep 5
First Quarter
Sep 14
Full
Sep 21
Last Quarter
Sep 28
New

Hourly Weather History & Observations

Time (EDT) Temp. Heat Index Dew Point Humidity Pressure Visibility Wind Dir Wind Speed Gust Speed Precip Events Conditions
12:56 AM 73.4 °F - 64.2 °F 73% 30.21 in 10.0 mi Calm Calm - N/A   Clear
1:56 AM 70.9 °F - 64.8 °F 81% 30.21 in 10.0 mi Calm Calm - N/A   Clear
2:56 AM 70.9 °F - 64.4 °F 80% 30.20 in 10.0 mi Calm Calm - N/A   Clear
3:56 AM 69.8 °F - 64.4 °F 83% 30.19 in 10.0 mi Calm Calm - N/A   Clear
4:56 AM 70.2 °F - 65.7 °F 86% 30.20 in 10.0 mi Calm Calm - N/A   Clear
5:56 AM 70.7 °F - 67.3 °F 89% 30.20 in 10.0 mi NE 3.5 mph - N/A   Clear
6:56 AM 70.9 °F - 67.8 °F 90% 30.21 in 10.0 mi Calm Calm - N/A   Clear
7:56 AM 73.9 °F - 70.2 °F 88% 30.22 in 10.0 mi East 3.5 mph - N/A   Clear
8:56 AM 78.4 °F - 69.1 °F 73% 30.22 in 10.0 mi East 5.8 mph - N/A   Clear
9:56 AM 80.4 °F 83.0 °F 67.5 °F 65% 30.22 in 10.0 mi East 10.4 mph - N/A   Partly Cloudy
10:56 AM 82.2 °F 84.2 °F 65.8 °F 57% 30.23 in 10.0 mi East 8.1 mph - N/A   Clear
11:56 AM 83.1 °F 85.4 °F 66.2 °F 57% 30.23 in 10.0 mi ESE 4.6 mph - N/A   Partly Cloudy
12:56 PM 84.4 °F 86.3 °F 65.3 °F 53% 30.22 in 10.0 mi ENE 6.9 mph - N/A   Partly Cloudy
1:56 PM 84.7 °F 87.4 °F 66.7 °F 55% 30.22 in 10.0 mi ENE 11.5 mph - N/A   Clear
2:56 PM 85.1 °F 87.1 °F 65.5 °F 52% 30.19 in 10.0 mi ENE 10.4 mph - N/A   Partly Cloudy
3:56 PM 84.4 °F 86.6 °F 65.8 °F 54% 30.18 in 10.0 mi East 8.1 mph - N/A   Clear
4:56 PM 83.8 °F 86.0 °F 65.8 °F 55% 30.17 in 10.0 mi East 9.2 mph - N/A   Clear
5:56 PM 82.8 °F 85.1 °F 66.4 °F 58% 30.17 in 10.0 mi ESE 9.2 mph - N/A   Partly Cloudy
6:56 PM 80.6 °F 83.6 °F 69.1 °F 68% 30.17 in 10.0 mi East 8.1 mph - N/A   Partly Cloudy
7:56 PM 78.3 °F - 70.7 °F 77% 30.17 in 10.0 mi East 5.8 mph - N/A   Mostly Cloudy
8:56 PM 77.5 °F - 70.9 °F 80% 30.16 in 10.0 mi East 6.9 mph - N/A   Partly Cloudy
9:56 PM 77.0 °F - 71.4 °F 83% 30.15 in 10.0 mi East 6.9 mph - N/A   Partly Cloudy
10:46 PM 77.0 °F - 71.6 °F 83% 30.15 in 10.0 mi East 4.6 mph - N/A   Mostly Cloudy
10:56 PM 76.8 °F - 71.6 °F 84% 30.15 in 10.0 mi East 5.8 mph - N/A   Mostly Cloudy
11:56 PM 76.1 °F - 71.6 °F 86% 30.15 in 10.0 mi East 5.8 mph - N/A   Clear